Weather History for Langdon, ND

Change the Weather History Date:

Tuesday, August 20, 2013

  Actual Average (KDVL) Record (KDVL)
Temperature  
Mean Temperature 72 °F -  
Max Temperature 93 °F 80 °F 96 °F (1963)
Min Temperature 51 °F 55 °F 35 °F (2004)
Cooling Degree Days 7    
Growing Degree Days 22 (Base 50)    
Moisture  
Dew Point 63 °F    
Average Humidity 70    
Maximum Humidity 94    
Minimum Humidity 54    
Precipitation  
Precipitation 0.00 in - - ()
Sea Level Pressure  
Sea Level Pressure 29.75 in    
Wind  
Wind Speed 8 mph (SW)    
Max Wind Speed 16 mph    
Max Gust Speed 22 mph    
Visibility 9 miles    
Events Fog    
Averages and records for this station are not official NWS values.
T = Trace of Precipitation, MM = Missing Value Source: NWS Daily Summary

Daily Weather History Graph

Daily Weather History Graph

Search for Another Location

Airport:

Trip Planner

Search our weather history database for the weather conditions in past years. The results will help you decide how hot, cold, wet, or windy it might be!

Date:

Astronomy

Aug. 20, 2013 Rise Set
Actual Time 6:33 AM CDT 8:38 PM CDT
Civil Twilight 5:59 AM CDT 9:12 PM CDT
Nautical Twilight 5:17 AM CDT 9:54 PM CDT
Astronomical Twilight 4:29 AM CDT 10:42 PM CDT
Moon 8:05 PM CDT 6:08 AM CDT
Length of Visible Light 15h 12m
Length of Day
14h 04m
Full, 100% of the Moon is Illuminated
Aug 20
Full
Aug 20
Full
Aug 28
Last Quarter
Sep 5
New
Sep 12
First Quarter

Hourly Weather History & Observations

Time (CDT) Temp. Heat Index Dew Point Humidity Pressure Visibility Wind Dir Wind Speed Gust Speed Precip Events Conditions
12:15 AM 71.6 °F - 55.4 °F 57% 29.75 in 10.0 mi SSW 11.5 mph - N/A   Clear
12:35 AM 68.0 °F - 55.4 °F 64% 29.74 in 10.0 mi SSW 11.5 mph - N/A   Clear
12:55 AM 68.0 °F - 55.4 °F 64% 29.75 in 10.0 mi SSW 10.4 mph - N/A   Clear
1:15 AM 66.2 °F - 55.4 °F 68% 29.75 in 10.0 mi SW 8.1 mph - N/A   Clear
1:35 AM 64.4 °F - 55.4 °F 73% 29.75 in 10.0 mi SSW 9.2 mph - N/A   Clear
1:55 AM 62.6 °F - 57.2 °F 82% 29.76 in 10.0 mi SSW 6.9 mph - N/A   Clear
2:15 AM 62.6 °F - 57.2 °F 82% 29.76 in 10.0 mi SW 6.9 mph - N/A   Clear
2:35 AM 62.6 °F - 57.2 °F 82% 29.76 in 10.0 mi SSW 8.1 mph - N/A   Clear
2:55 AM 62.6 °F - 57.2 °F 82% 29.76 in 10.0 mi SSW 8.1 mph - N/A   Clear
3:15 AM 62.6 °F - 57.2 °F 82% 29.76 in 10.0 mi SSW 3.5 mph - N/A   Clear
3:35 AM 62.6 °F - 57.2 °F 82% 29.76 in 10.0 mi SSW 5.8 mph - N/A   Clear
3:55 AM 59.0 °F - 55.4 °F 88% 29.76 in 10.0 mi SSW 6.9 mph - N/A   Clear
4:15 AM 59.0 °F - 53.6 °F 82% 29.76 in 10.0 mi SW 3.5 mph - N/A   Clear
4:35 AM 59.0 °F - 53.6 °F 82% 29.76 in 10.0 mi Calm Calm - N/A   Clear
4:55 AM 59.0 °F - 53.6 °F 82% 29.76 in 9.0 mi Calm Calm - N/A   Clear
5:15 AM 57.2 °F - 51.8 °F 82% 29.76 in 6.0 mi South 6.9 mph - N/A   Haze
5:35 AM 55.4 °F - 50.0 °F 82% 29.76 in 8.0 mi Calm Calm - N/A   Clear
5:55 AM 55.4 °F - 50.0 °F 82% 29.76 in 1.0 mi Calm Calm - N/A   Clear
6:15 AM 55.4 °F - 50.0 °F 82% 29.76 in 3.0 mi Calm Calm - N/A   Clear
6:35 AM 53.6 °F - 50.0 °F 88% 29.77 in 2.5 mi Calm Calm - N/A   Clear
6:55 AM 53.6 °F - 50.0 °F 88% 29.78 in 0.2 mi Calm Calm - N/A Fog Fog
7:15 AM 51.8 °F - 48.2 °F 88% 29.78 in 0.2 mi Calm Calm - N/A Fog Fog
7:35 AM 57.2 °F - 55.4 °F 94% 29.78 in 8.0 mi South 3.5 mph - N/A   Clear
7:55 AM 60.8 °F - 53.6 °F 77% 29.79 in 10.0 mi Calm Calm - N/A   Clear
8:15 AM 64.4 °F - 57.2 °F 77% 29.79 in 10.0 mi Calm Calm - N/A   Clear
8:35 AM 68.0 °F - 57.2 °F 68% 29.78 in 10.0 mi Calm Calm - N/A   Clear
8:55 AM 71.6 °F - 60.8 °F 69% 29.79 in 10.0 mi West 4.6 mph - N/A   Clear
9:15 AM 71.6 °F - 62.6 °F 73% 29.79 in 10.0 mi WSW 4.6 mph - N/A   Clear
9:35 AM 73.4 °F - 62.6 °F 69% 29.79 in 10.0 mi Calm Calm - N/A   Clear
9:55 AM 75.2 °F - 64.4 °F 69% 29.78 in 10.0 mi Calm Calm - N/A   Clear
10:15 AM 77.0 °F - 66.2 °F 69% 29.79 in 10.0 mi South 3.5 mph - N/A   Clear
10:35 AM 80.6 °F 83.2 °F 68.0 °F 65% 29.79 in 10.0 mi SSE 4.6 mph - N/A   Clear
10:55 AM 82.4 °F 83.9 °F 64.4 °F 54% 29.79 in 10.0 mi South 4.6 mph - N/A   Clear
11:15 AM 82.4 °F 84.6 °F 66.2 °F 58% 29.79 in 10.0 mi SSE 5.8 mph - N/A   Clear
11:35 AM 84.2 °F 87.3 °F 68.0 °F 58% 29.79 in 10.0 mi SE 8.1 mph - N/A   Clear
11:55 AM 86.0 °F 89.4 °F 68.0 °F 55% 29.78 in 10.0 mi SSE 9.2 mph - N/A   Clear
12:15 PM 87.8 °F 93.8 °F 71.6 °F 58% 29.77 in 10.0 mi South 10.4 mph - N/A   Clear
12:35 PM 87.8 °F 93.8 °F 71.6 °F 58% 29.76 in 10.0 mi SSE 9.2 mph - N/A   Clear
12:55 PM 89.6 °F 96.2 °F 71.6 °F 55% 29.75 in 10.0 mi SSE 13.8 mph - N/A   Clear
1:15 PM 89.6 °F 96.2 °F 71.6 °F 55% 29.73 in 8.0 mi SE 15.0 mph 18.4 mph N/A   Clear
1:35 PM 89.6 °F 98.2 °F 73.4 °F 59% 29.73 in 4.0 mi SSE 13.8 mph 21.9 mph N/A   Haze
1:55 PM 91.4 °F 100.1 °F 73.4 °F 55% 29.73 in 7.0 mi SSE 13.8 mph - N/A   Clear
2:15 PM 91.4 °F 100.1 °F 73.4 °F 55% 29.73 in 10.0 mi SSE 13.8 mph - N/A   Clear
2:35 PM 91.4 °F 100.1 °F 73.4 °F 55% 29.73 in 10.0 mi South 16.1 mph 20.7 mph N/A   Clear
2:55 PM 91.4 °F 100.1 °F 73.4 °F 55% 29.73 in 10.0 mi SSW 15.0 mph 21.9 mph N/A   Clear
3:15 PM 93.2 °F 105.0 °F 75.2 °F 56% 29.72 in 10.0 mi South 11.5 mph 20.7 mph N/A   Clear
3:35 PM 93.2 °F 105.0 °F 75.2 °F 56% 29.71 in 10.0 mi SSW 10.4 mph 17.3 mph N/A   Clear
3:55 PM 91.4 °F 100.1 °F 73.4 °F 55% 29.71 in 10.0 mi SSW 8.1 mph - N/A   Clear
4:15 PM 93.2 °F 105.0 °F 75.2 °F 56% 29.70 in 10.0 mi SSW 13.8 mph 20.7 mph N/A   Clear
4:35 PM 91.4 °F 100.1 °F 73.4 °F 55% 29.69 in 10.0 mi SW 13.8 mph 19.6 mph N/A   Clear
4:55 PM 91.4 °F 100.1 °F 73.4 °F 55% 29.69 in 10.0 mi SW 13.8 mph 19.6 mph N/A   Clear
5:15 PM 91.4 °F 100.1 °F 73.4 °F 55% 29.68 in 10.0 mi SW 15.0 mph 19.6 mph N/A   Clear
5:35 PM 91.4 °F 100.1 °F 73.4 °F 55% 29.67 in 10.0 mi SW 10.4 mph 17.3 mph N/A   Clear
5:55 PM 91.4 °F 100.1 °F 73.4 °F 55% 29.67 in 10.0 mi SW 9.2 mph - N/A   Clear
6:15 PM 89.6 °F 98.2 °F 73.4 °F 59% 29.67 in 10.0 mi WSW 13.8 mph 18.4 mph N/A   Clear
6:35 PM 89.6 °F 98.2 °F 73.4 °F 59% 29.67 in 10.0 mi West 15.0 mph 20.7 mph N/A   Clear
6:55 PM 87.8 °F 95.6 °F 73.4 °F 62% 29.68 in 10.0 mi West 13.8 mph 21.9 mph N/A   Clear
7:15 PM 86.0 °F 93.4 °F 73.4 °F 66% 29.68 in 10.0 mi West 13.8 mph 19.6 mph N/A   Clear
7:35 PM 84.2 °F 88.4 °F 69.8 °F 62% 29.68 in 10.0 mi West 12.7 mph 20.7 mph N/A   Clear
7:55 PM 80.6 °F 83.2 °F 68.0 °F 65% 29.69 in 10.0 mi West 9.2 mph - N/A   Clear
8:15 PM 78.8 °F - 68.0 °F 69% 29.69 in 10.0 mi West 13.8 mph - N/A   Clear
8:35 PM 77.0 °F - 66.2 °F 69% 29.71 in 10.0 mi NW 13.8 mph 20.7 mph N/A   Clear
8:55 PM 75.2 °F - 66.2 °F 73% 29.74 in 10.0 mi North 12.7 mph - N/A   Clear
9:15 PM 71.6 °F - 66.2 °F 83% 29.75 in 10.0 mi North 12.7 mph 16.1 mph N/A   Clear
9:35 PM 69.8 °F - 66.2 °F 88% 29.77 in 10.0 mi North 12.7 mph - N/A   Clear
9:55 PM 68.0 °F - 64.4 °F 88% 29.78 in 10.0 mi NNW 10.4 mph - N/A   Clear
10:15 PM 66.2 °F - 62.6 °F 88% 29.79 in 10.0 mi North 11.5 mph - N/A   Clear
10:35 PM 66.2 °F - 60.8 °F 83% 29.80 in 10.0 mi North 11.5 mph - N/A   Clear
10:55 PM 64.4 °F - 59.0 °F 83% 29.80 in 10.0 mi North 12.7 mph - N/A   Clear
11:15 PM 64.4 °F - 59.0 °F 83% 29.80 in 10.0 mi North 12.7 mph - N/A   Clear
11:35 PM 62.6 °F - 57.2 °F 82% 29.81 in 10.0 mi North 12.7 mph - N/A   Clear
11:55 PM 62.6 °F - 57.2 °F 82% 29.83 in 10.0 mi North 10.4 mph - N/A   Clear